Regional Weather Roundup
Issued by NWS

Home | Current Version | Previous Version | Graphics & Text | Print | Product List | Glossary On
Versions: 1 2 3 4 5 6 7 8 9 10 11 12 13 14 15 16 17 18 19 20 21 22 23 24 25 26 27 28 29 30 31 32 33 34 35 36 37 38 39 40 41 42 43 44 45 46 47 48 49 50
000
ASUS43 KLSX 241507
RWRMO

WEATHER SUMMARY FOR MISSOURI
NATIONAL WEATHER SERVICE SPRINGFIELD MO
1000 AM CDT THU MAY 24 2018

NOTE: "FAIR" INDICATES FEW OR NO CLOUDS BELOW 12,000 FEET WITH NO
       SIGNIFICANT WEATHER AND/OR OBSTRUCTIONS TO VISIBILITY.
       CURRENT SKY AND/OR WEATHER CONDITIONS ARE NOT AVAILABLE FOR
       CHILLICOTHE AND FARMINGTON.

MOZ001>031-035>038-043-044-053-054-241600-
...NORTHERN AND WESTERN MISSOURI...

CITY           SKY/WX    TMP DP  RH WIND       PRES   REMARKS
KANSAS CTY INT PTSUNNY   76  67  73 SE12      30.10S
KANSAS C DTWN  SUNNY     79  65  62 S8        30.09F
LEE`S SUMMIT   MOSUNNY   76  67  73 SE10      30.12S
ST JOSEPH      MOSUNNY   78  68  71 S8        30.08F
CHILLICOTHE      N/A     78  67  68 SE6       30.12S
KIRKSVILLE     SUNNY     80  67  64 S8        30.14F

$$
MOZ066>068-077>081-088>096-101>105-241600-
...SOUTHWEST MISSOURI...

CITY           SKY/WX    TMP DP  RH WIND       PRES   REMARKS
SPRINGFIELD    SUNNY     76  66  71 S10       30.14F
JOPLIN         PTSUNNY   77  67  71 SW5       30.13R
BRANSON        CLOUDY    68  68 100 SE6       30.17F

$$
MOZ032>034-039>042-045>050-055>058-069>072-241600-
...CENTRAL MISSOURI...

CITY           SKY/WX    TMP DP  RH WIND       PRES   REMARKS
COLUMBIA       SUNNY     80  70  71 SE3       30.14F
JEFFERSON CITY SUNNY     79  68  69 VRB5      30.13F
ROLLA          MOSUNNY   79  65  62 SE8       30.16F
SEDALIA        CLOUDY    77  67  71 S7        30.14F
WHITEMAN AFB   PTSUNNY   77  67  71 S7        30.08F
WARRENSBURG    MOSUNNY   73  64  73 SE7       30.12S
OSAGE BEACH    MOSUNNY   74  67  78 S6        30.15F

$$
MOZ051-052-059>065-241600-
...EAST CENTRAL MISSOURI...

CITY           SKY/WX    TMP DP  RH WIND       PRES   REMARKS
ST LOUIS INTL  MOSUNNY   81  64  56 S9        30.15F
SPIRIT OF STL  MOSUNNY   81  64  56 CALM      30.14F
ST CHARLES     SUNNY     80  66  62 SE8       30.14F

$$
MOZ072>076-082>087-097>100-106>115-241600-
...SOUTH CENTRAL AND SOUTHEAST MISSOURI...

CITY           SKY/WX    TMP DP  RH WIND       PRES   REMARKS
CAPE GIRARDEAU FAIR      81  67  62 E5        30.14F
FARMINGTON     MOSUNNY   78  67  68 SE6       30.17F
POPLAR BLUFF   FAIR      80  68  66 E3        30.14S
WEST PLAINS    MOSUNNY   74  68  81 CALM      30.17S

$$




USA.gov is the U.S. government's official web portal to all federal, state and local government web resources and services.